BREEZE-M DEB (TANK), 41312

Orbit data source: Space-Track

BREEZE-M DEB (TANK), 41312 is space debris in HEO originally from a launch on Fri, 29 Jan 2016 UTC launched from the Tyuratam Missile And Space Complex (TTMTR). Debris objects in space refer to the collection of defunct objects orbiting the Earth. Examples of debris include non-operational satellites, rocket bodies, and fragments generated from explosions, collisions, or faulty payload assembly.

Loading next visibility...
Identifier
41312, 2016-005C
Orbit
HEO
Last TLE update
16 hours ago
Origin
Manufacturer
Khrunichev
Mission
Spacecraft
Bus & Motor
BRIZ TANK, Unknown motor
Mass
~1,000 kg wet, 1,000 kg dry
Launch date (UTC)
2016-01-29 (9 years ago)
Launch vehicle
Unknown
Launch site
Tyuratam Missile And Space Complex (TTMTR)
Object type
Payload
Rocket body
Debris
Shape & HBR
Torus, 4 m
Radar Cross Section
8.218 m², Large (>1 m²)

Expand to show TLE details & history

TLE from 16 hours ago
0 BREEZE-M DEB (TANK)
1 41312U 16005C   25189.90900326  .00004035  00000-0  63861-3 0  9996
2 41312  49.4504 286.8368 5823279 256.6757  35.6673  4.31772813144784
Epoch: 2025-07-08T21:48Z
TLE epoch observation values (Epoch: 2025-07-08T21:48:57.881Z)
Latitude
0.00001°
Longitude
32.49969°
Altitude
5,800.848 km
Speed
6.359 km/s
True Right ascension
19h 07m 21s
True Declination
0° 00' 00"
Sunlit
Object was in full shadow at epoch
Visualization orbit readout
Latitude
-41.06879°
Longitude
-100.09877°
Altitude
415.886 km
Speed
9.616 km/s
Apparent Right ascension
12h 07m 22s
Apparent Declination
-43° 57' 16"
Sunlit
Object is in daylight
Visualization observer readout
Local Sidereal Time
02:03:28
Azimuth
110.189° ESE
Elevation
-68.152°
Doppler factor
1
Orbital elements
Apogee altitude
18,830.374 km
Perigee altitude
275.915 km
Semi-major axis
15,931.281 km
Eccentricity
0.58233
Inclination
49.4504°
RAAN
286.8368°
Arg. of periapsis
256.6757°
True anomaly
Unknown
Mean anomaly
35.6673°
Eccentric anomaly
Unknown
Mean motion
1.07936 °/min
Orbital period
333.53 mins
BSTAR
0.00063861
Loading maneuver chart data...
Loading SW <> Apogee altitude chart data...
Loading historical data...
Loading historical data...
Loading historical data...
Loading historical data...
Loading historical data...
Loading historical data...
Loading historical data...
Other satellites on launch #5 in the year 2016 (2016-01-29 UTC)

BREEZE-M DEB (TANK) Visibility forecast

Observer location: undefined°, undefined°

Span
Click to sort rows by Start time (UTC) header in descending order
Start Az.
Max El. time (UTC)
Max El. Az.
Max El.
End time (UTC)
End Az.
197 mins2025-07-09 15:51:55.169Z302.081° NW2025-07-09 18:41:55.169Z260.949° W37.071°2025-07-09 19:08:55.169Z189.878° SSW
247 mins2025-07-10 07:06:55.169Z189.873° SSW2025-07-10 08:09:55.169Z106.192° ESE43.245°2025-07-10 11:13:55.169Z67.57° E
31 mins2025-07-10 13:21:55.169Z281.76° WNW2025-07-10 13:52:55.169Z289.294° WNW23.188°2025-07-10 13:52:55.169Z289.294° WNW
|